Погода в Сизиме

Россия / Республика Тыва     51°19′03″N   95°56′37″E
темп.,
°C
ветер,
м/с
пор.,
м/с
влажн.,
%
обл.,
%
осадки,
мм/ч
давл.,
гПа
погр.,
м
28 сентября, вт
вт2801:00−9ююв22956 0.0 102928
04:00−12вюв219855 0.0 103115
07:00−10в2290100 0.0 103064
10:00−2всв1259100 0.0 1025448
13:00+3св1246100 0.0 1021978
16:00+4ссв2146100 0.0 1019879
19:00−5ююв119262 0.0 102410
22:00−8юв219624 0.0 102615
29 сентября, ср
ср2901:00−10вюв2197100 0.0 102822
04:00−9вюв2196100 0.0 102730
07:00−10вюв229457 0.0 102843
10:00+1всв22565 0.0 1022402
13:00+6всв22405 0.0 1016958
16:00+7св224299 0.0 1014666
19:00+1вюв1174100 0.0 101710
22:00−3юв118765 0.0 102011
30 сентября, чт
чт3001:00−1в1285100 0.0 102039
04:00−1в128791 0.0 102057
07:00−3в219618 0.0 102125
10:00+4всв2267100 0.0 1016417
13:00+8всв225899 0.0 1012698
16:00+9ссв2257100 0.0 1010671
19:00+4юз1197100 4.1 101367
22:00+3зюз1299100 2.4 1013502
1 октября, пт
пт101:00+3ссз0098100 2.6 1012119
04:00+2св0196100 0.0 101213
07:00+2юв1196100 0.0 101220
10:00+3з1498100 0.6 1012376
13:00+3ссз2285100 0.8 1012431
16:00+5ссв227686 0.0 1011560
19:000юв119323 0.0 101310
22:00−2вюв119577 0.0 101610
2 октября, сб
сб201:00−3в1196100 0.0 101810
04:00−3в119592 0.2 102025
07:00−4в119388 0.3 102113
10:00+3всв116211 0.0 1020576
13:00+6ссв114356 0.0 10171296
16:00+6св114082 0.0 10151416
19:00+2в1161100 0.0 101710
22:00+1в1168100 0.0 101810